Flag for Germany Weather past 2 weeks in Trier, Rhineland-Palatinate, Germany

Now
44 °F

Low clouds.


Feels Like: 39 °F
Forecast: 40 / 47 °F
Wind: 9 mph from Southwest

Location: Trier-Petrisberg

Current Time: Dec 22, 2014 at 7:53:27 PM

Latest Report: Dec 22, 2014 at 7:00 PM


Visibility: 11 mi

Pressure: 30.27 "Hg

Humidity: 99%

Dew point: 44 °F

Location of TrierLocation

Historic Weather in Trier — Graph

°F

Trier temperature yesterday

Maximum temperature yesterday: 43 °F (at 4:00 PM)
Minimum temperature yesterday: 36 °F (at 7:00 AM)
Average temperature yesterday: 40 °F

Past Weeks' High & Low Weather Summary

 TemperatureHumidityPressure
High54 °F (Dec 18, 6:00 PM)100% (Dec 8, 8:00 AM)30.52 "Hg (Dec 8, 8:00 AM)
Low33 °F (Dec 8, 10:00 PM)72% (Dec 19, 10:00 PM)29.59 "Hg (Dec 12, 5:00 PM)
Average41 °F94%30.08 "Hg
* Reported Dec 7 7:00 PM — Dec 22 7:00 PM, Trier, Weather by CustomWeather, © 2014

Note: Actual official high and low records may vary slightly from our data, if they occured in-between our weather recording intervals... More about our weather records

Advertising

Trier weather history for previous 24 hours

 ConditionsComfort  
Time TempWeatherWind HumidityBarometerVisibility
7:00 PM
Dec 22
44 °FLow clouds.9 mph99%30.27 "Hg11 mi
6:00 PM44 °FLow clouds.10 mph99%30.27 "Hg10 mi
5:00 PM43 °FLow clouds.8 mph99%30.28 "Hg5 mi
4:00 PM43 °FDrizzle. Low clouds.8 mph98%30.27 "Hg4 mi
3:00 PM43 °FLow clouds.12 mph97%30.26 "Hg6 mi
2:00 PM43 °FLow clouds.9 mph92%30.29 "Hg14 mi
1:00 PM44 °FOvercast.12 mph90%30.30 "Hg17 mi
12:00 PM43 °FOvercast.10 mph90%30.33 "Hg12 mi
11:00 AM43 °FOvercast.10 mph90%30.35 "Hg11 mi
10:00 AM43 °FLow clouds.12 mph91%30.34 "Hg12 mi
9:00 AM42 °FOvercast.12 mph92%30.32 "Hg6 mi
8:00 AM42 °FLow clouds.10 mph92%30.33 "Hg9 mi
7:00 AM42 °FLow clouds.9 mph94%30.33 "Hg7 mi
6:00 AM42 °FLow clouds.9 mph92%30.33 "Hg11 mi
5:00 AM42 °FLow clouds.10 mph91%30.34 "Hg11 mi
4:00 AM42 °FOvercast.9 mph88%30.34 "Hg22 mi
3:00 AM43 °FOvercast.9 mph86%30.36 "Hg25 mi
2:00 AM42 °FOvercast.9 mph88%30.37 "Hg31 mi
1:00 AM42 °FOvercast.8 mph87%30.39 "Hg22 mi
12:00 AM42 °FOvercast.8 mph86%30.40 "Hg22 mi
11:00 PM
Dec 21
42 °FOvercast.9 mph86%30.40 "Hg22 mi
10:00 PM42 °FOvercast.9 mph86%30.40 "Hg25 mi
9:00 PM42 °FOvercast.9 mph88%30.43 "Hg22 mi
8:00 PM42 °FOvercast.9 mph88%30.43 "Hg25 mi
7:00 PM42 °FOvercast.9 mph89%30.42 "Hg22 mi
Weather by CustomWeather, © 2014

See weather overviewHow to use our weather pages